Skip Page Navigation
NASA JPL Caltech
NASA Logo - Jet Propulsion Laboratory + View the NASA Portal
+ Near-Earth Object (NEO) Project
Search JPL
JPL Home Earth Solar System Stars & Galaxies Technology
JPL Solar System Dynamics
BODIES ORBITS EPHEMERIDES TOOLS PHYSICAL DATA DISCOVERY FAQ SITE MAP
JPL Small-Body Database Browser
Search: [ help ]  
213629 (2002 QK67)
Classification: Main-belt Asteroid          SPK-ID: 2213629
Ephemeris | Orbit Diagram | Orbital Elements | Physical Parameters | Discovery Circumstances ]

[ show orbit diagram ]
Orbital Elements at Epoch 2455200.5 (2010-Jan-04.0) TDB
Reference: MPO156406 (heliocentric ecliptic J2000)
 Element Value Uncertainty (1-sigma)   Units 
e 0.0645309 n/a  
a 2.5445522 n/a AU
q 2.3803500 n/a AU
i 2.97068 n/a deg
node 352.73369 n/a deg
peri 281.77292 n/a deg
M 341.24743 n/a deg
tp 2455277.7278181
(2010-Mar-22.22781810)
n/a JED
period 1482.5708965
4.06
n/a
n/a
d
yr
n 0.24282144 n/a deg/d
Q 2.7087544 n/a AU
  Orbit Determination Parameters
   # obs. used (total)      45  
   first obs. used      2002-??-??  
   last obs. used      2009-04-26  
   # oppositions      4  
   planetary ephem.      DE403  
   quality code      1  
   fit RMS      0.48  
   data source      MPC:mpu  
   producer      MPC  

Additional Information
 T_jup = 3.439 

Ephemeris | Orbit Diagram | Orbital Elements | Physical Parameters | Discovery Circumstances ]

Physical Parameter Table
Parameter Symbol Value Units Sigma Reference Notes
absolute magnitude H 17.4 mag n/a MPO156406  

213629 (2002 QK67)           Discovered 2002-Aug-26 by NEAT at Palomar (644)
Reference: 20090509/Numbers.arcLast Updated: 2009-05-11
Ephemeris | Orbit Diagram | Orbital Elements | Physical Parameters | Discovery Circumstances ]
ABOUT SSD CREDITS/AWARDS PRIVACY/COPYRIGHT GLOSSARY LINKS
FirstGov 2010-Feb-10 07:44 UT
(server date/time)  
NASA Home Page
Site Manager:   Donald K. Yeomans
Webmaster  Alan B. Chamberlin